{"data":{"norad_id":55659,"intl_designator":"2023-021AH","name":"STARLINK-5477","alt_names":[],"object_type":"PAYLOAD","status":"ACTIVE","operator":null,"country":"US","launch_date":"2023-02-17","launch_site_code":"AFWTR","launch_vehicle":null,"mission":null,"orbit_class":"UNKNOWN","rcs_meters":null,"size_class":null,"mass_kg":null,"dimensions":null,"purposes":["comms"],"wikipedia_slug":null,"has_3d_model":false,"image_url":null,"decayed_at":null,"tle_current":{"epoch":"2026-05-24T22:42:22.125888Z","epoch_age_seconds":86631,"freshness":"FRESH","line1":"1 55659U 23021AH  26144.94608942 -.00000189  00000+0 -80268-5 0  9995","line2":"2 55659  69.9989 332.3212 0002698 264.7717  95.3134 14.98331544180698","mean_motion":14.98331544,"eccentricity":0.0002698,"inclination_deg":69.9989,"raan_deg":332.3212,"arg_perigee_deg":264.7717,"mean_anomaly_deg":95.3134,"bstar":-8.0268e-6,"rev_number":18069,"period_min":96.106900089397,"perigee_km":570.17595550212,"apogee_km":573.92627700965,"semimajor_km":6950.1881162559,"source":"CELESTRAK","updated_at":"2026-05-25T13:38:17.873472Z"}}}